This is the latest recevied weather packets stored in our database for station/object KD5BIG-13. If no packets are shown the sender has not sent any weather packets the latest 10 day(s).
| Time | Temp. | Humidity | Pressure | Rain* | Wind** | Luminosity | Snow |
|---|---|---|---|---|---|---|---|
| 1777573733 | 18.33° C | 96% | 1016.4 hPa | 0 mm | - | 235 W/m² | - |
| 1777573429 | 18.33° C | 96% | 1016.3 hPa | 0 mm | - | 185 W/m² | - |
| 1777573125 | 18.33° C | 96% | 1016.6 hPa | 0.51 mm | - | 202 W/m² | - |
| 1777572822 | 18.33° C | 95% | 1016.7 hPa | 1.27 mm | - | 145 W/m² | - |
| 1777572518 | 18.33° C | 95% | 1016.8 hPa | 0.51 mm | - | 109 W/m² | - |
| 1777572213 | 18.33° C | 94% | 1017 hPa | 0 mm | - | 74 W/m² | - |
| 1777571909 | 18.33° C | 95% | 1017 hPa | 0 mm | - | 47 W/m² | - |
| 1777571604 | 18.33° C | 95% | 1016.8 hPa | 0 mm | - | 70 W/m² | - |
| 1777571302 | 18.33° C | 95% | 1016.8 hPa | 0 mm | - | 54 W/m² | - |
| 1777570998 | 18.33° C | 95% | 1016.9 hPa | 0 mm | - | 60 W/m² | - |
| 1777570694 | 18.33° C | 94% | 1016.9 hPa | 0 mm | - | 60 W/m² | - |
| 1777570390 | 18.89° C | 95% | 1016.8 hPa | 0 mm | - | 83 W/m² | - |
| 1777570086 | 18.89° C | 94% | 1016.7 hPa | 0 mm | - | 70 W/m² | - |
| 1777569782 | 18.89° C | 95% | 1016.7 hPa | 0 mm | - | 99 W/m² | - |
| 1777569478 | 18.89° C | 95% | 1017 hPa | 0 mm | - | 109 W/m² | - |
| 1777569175 | 18.89° C | 96% | 1016.8 hPa | 0 mm | - | 130 W/m² | - |
| 1777568871 | 18.89° C | 96% | 1016.9 hPa | 0 mm | - | 178 W/m² | - |
| 1777568569 | 18.89° C | 96% | 1017.1 hPa | 0 mm | - | 150 W/m² | - |
| 1777568265 | 18.89° C | 96% | 1017.1 hPa | 0 mm | - | 137 W/m² | - |
| 1777567962 | 18.89° C | 96% | 1017.3 hPa | 0 mm | - | 122 W/m² | - |
| 1777567658 | 18.89° C | 97% | 1017.3 hPa | 0 mm | - | 114 W/m² | - |
| 1777567356 | 18.89° C | 97% | 1017.4 hPa | 0 mm | - | 79 W/m² | - |
| 1777567054 | 18.89° C | 97% | 1017.3 hPa | 0 mm | - | 71 W/m² | - |
| 1777566752 | 18.89° C | 97% | 1017.1 hPa | 0 mm | - | 92 W/m² | - |
| 1777566449 | 18.89° C | 97% | 1017.4 hPa | 0 mm | - | 68 W/m² | - |
* Rain latest hour (hover to see other rain measurements)
** Current wind speed in m/s (hover to see current wind gust speed)